Location: Aytr�
(46.1357°N, 1.1145°W)
Time: 21:32:58
(UTC+00:00)

H-2A R/B - Pass Details

Date: 03 March 2021
Orbit: 578 x 654 km, 98.5° (Epoch: 22 April)

Event Time Altitude Azimuth Distance (km) Brightness Sun altitude
Rises 18:31:20 0° 5° (N) 2,808 5.4 -7.3°
Reaches altitude 10° 18:33:38 10° 357° (N) 1,902 4.6 -7.7°
Maximum altitude 18:37:20 34° 292° (WNW) 973 3.8 -8.3°
Drops below altitude 10° 18:41:02 10° 228° (SW) 1,897 5.3 -9.0°
Sets 18:43:19 0° 219° (SW) 2,798 6.0 -9.4°
